Welcome to the New NWS' Forecast!
Most changes are behind the scenes, but click here for differences you might notice.

Regional Weather Roundup (RWR)

Issued by Shreveport, LA (SHV)

                            
655 
ASUS44 KSHV 201210
RWRSHV

WEATHER ROUNDUP FOR THE FOUR STATE AREA
NATIONAL WEATHER SERVICE SHREVEPORT LA
700 AM CDT MON AUG 20 2018

NOTE:  "FAIR" INDICATES FEW OR NO CLOUDS BELOW 12000 FEET
WITH NO SIGNIFICANT WEATHER AND/OR OBSTRUCTIONS TO VISIBILITY.

!LAZ001-LAZ014-TXZ097-201300
SHREVEPORT...MONROE...TEXARKANA RADIOS
  
CITY           SKY/WX    TMP DP  RH WIND       PRES   REMARKS
SHREVEPORT     MOCLDY    81  75  82 SW10      29.93R                  
MONROE         MOCLDY    78  76  93 SW10      29.95R                  
NATCHITOCHES     N/A     78  76  92 CALM      29.97R                  
TEXARKANA      MOCLDY    78  73  84 SW9       29.90R                  
$$

!LAZ001-LAZ014-TXZ097-201300
OTHER LOCATIONS...
  
CITY           SKY/WX    TMP DP  RH WIND       PRES   REMARKS
DOWNTOWN SHV   MOCLDY    82  74  76 SW12G22   29.93R                  
BOSSIER CITY     N/A     81  73  76 SW14G20   29.92R                  
RUSTON         MOCLDY    78  75  89 S7        29.98R                  
LITTLE ROCK    CLOUDY    71  71 100 CALM      29.89R                  
EL DORADO        N/A     79  77  94 S8        29.91R                  
JACKSON          N/A     74  73  97 S7        29.99S                  
NEW ORLEANS    MOCLDY    80  79  96 S5        30.02R                  
HOUSTON        MOCLDY    81  78  91 CALM      29.98R                  
LUFKIN         CLOUDY    78  75  90 S3        29.97R                  
TYLER          CLEAR     80  74  81 SW13      29.95R                  
DAL FT WORTH   PTCLDY    79  70  74 SW8       29.92R                  
$$


!TXZ136-TXZ165-201300
TYLER...LUFKIN RADIOS
  
CITY           SKY/WX    TMP DP  RH WIND       PRES   REMARKS
TYLER          CLEAR     80  74  81 SW13      29.95R                  
GILMER           N/A    N/A N/A N/A MISG        N/A                   
LONGVIEW       PTCLDY    80  75  84 SW8       29.94R                  
LUFKIN         CLOUDY    78  75  90 S3        29.97R                  
$$

!TXZ136-TXZ165-201300
OTHER LOCATIONS...
  
CITY           SKY/WX    TMP DP  RH WIND       PRES   REMARKS
NACOGDOCHES      N/A     79  75  87 SW6         N/A                   
BEAUMONT         N/A     79  75  87 S3        29.98R                  
HOUSTON        MOCLDY    81  78  91 CALM      29.98R                  
COLLEGE STN    CLOUDY    79  77  94 S5        29.97R                  
AUSTIN         CLOUDY    79  75  87 S5        29.97R                  
DAL FT WORTH   PTCLDY    79  70  74 SW8       29.92R                  
TEXARKANA      MOCLDY    78  73  84 SW9       29.90R                  
SHREVEPORT     MOCLDY    81  75  82 SW10      29.93R                  
FORT POLK        N/A     77  74  92 W5        29.98R                  
LAKE CHARLES     N/A     80  72  76 SW6       29.98S                  
$$